Location: Piotrkow Trybunalski
(51.4000°N, 19.6830°E)
Time: 15:13:36
(UTC+01:00)

Vanguard 2 - Pass Details

Date: 13 February 2023
Orbit: 553 x 2927 km, 32.9° (Epoch: 24 March)

Event Time Altitude Azimuth Distance (km) Brightness Sun altitude
Rises 00:22:56 0° 265° (W) 5,677 - -51.7°
Reaches altitude 10° 00:27:39 10° 251° (WSW) 5,021 - -51.6°
Maximum altitude 00:37:43 22° 209° (SSW) 4,621 - -51.2°
Drops below altitude 10° 00:49:10 10° 168° (SSE) 5,751 - -50.6°
Sets 00:55:15 0° 156° (SSE) 6,707 - -50.2°
